Home > Weather > Camagüey > Past weeks

Flag for Cuba Past Weather in Camagüey, Cuba — Yesterday and Last 2 Weeks

Now
77 °F

Passing clouds.


Feels Like: 78 °F
Forecast: 76 / 93 °F
Wind: 6 mph from Northeast

Location: Camaguey Aeropuerto

Current Time: Jul 24, 2016 at 6:46:21 AM

Latest Report: Jul 24, 2016 at 4:50 AM


Visibility: 6 mi

Pressure: 30.04 "Hg

Humidity: 94%

Dew Point: 75 °F

Location of CamagüeyLocation

Past Weather in Camagüey — Graph

°F

Camagüey Temperature Yesterday

Maximum temperature yesterday: 93 °F (at 4:51 PM)
Minimum temperature yesterday: 73 °F (at 12:50 AM)
Average temperature yesterday: 81 °F

High & Low Weather Summary for the Past Weeks

 TemperatureHumidityPressure
High93 °F (Jul 9, 2:50 PM)100% (Jul 20, 7:50 AM)30.12 "Hg (Jul 20, 7:50 AM)
Low72 °F (Jul 19, 4:50 AM)39% (Jul 9, 3:50 PM)29.98 "Hg (Jul 15, 3:58 PM)
Average81 °F77%30.06 "Hg
* Reported Jul 9 4:50 AM — Jul 24 4:50 AM, Camagüey, Weather by CustomWeather, © 2016

Note: Actual official high and low records may vary slightly from our data, if they occured in-between our weather recording intervals... More about our weather records

Advertising

Camagüey Weather History for the Previous 24 Hours

Scroll right to see more
 ConditionsComfort  
Time TempWeatherWind HumidityBarometerVisibility
4:50 AM
Sun, Jul 24
77 °FPassing clouds.6 mph94%30.04 "Hg6 mi
3:50 AM77 °FPassing clouds.2 mph94%30.04 "Hg6 mi
2:50 AM77 °FPassing clouds.3 mph94%30.04 "Hg6 mi
1:50 AM77 °FPassing clouds.7 mph94%30.04 "Hg6 mi
12:50 AM79 °FPassing clouds.7 mph89%30.04 "Hg6 mi
11:50 PM
Sat, Jul 23
79 °FPassing clouds.12 mph89%30.04 "Hg6 mi
10:50 PM81 °FPassing clouds.12 mph79%30.04 "Hg6 mi
9:50 PM81 °FPassing clouds.6 mph70%30.04 "Hg6 mi
8:50 PM82 °FScattered clouds.6 mph74%30.04 "Hg6 mi
7:50 PM84 °FPassing clouds.9 mph70%30.01 "Hg6 mi
6:50 PM86 °FPassing clouds.12 mph66%30.01 "Hg6 mi
5:50 PM88 °FScattered clouds.14 mph66%29.98 "Hg6 mi
4:51 PM93 °FScattered clouds.8 mph47%29.98 "Hg6 mi
3:52 PM90 °FScattered clouds.8 mph55%30.01 "Hg6 mi
2:51 PM91 °FScattered clouds.6 mph52%30.04 "Hg6 mi
1:51 PM91 °FPartly sunny.5 mph56%30.04 "Hg6 mi
12:51 PM86 °FPartly sunny.7 mph66%30.07 "Hg6 mi
11:50 AM86 °FPartly sunny.8 mph75%30.07 "Hg6 mi
10:50 AM82 °FScattered clouds.8 mph84%30.07 "Hg6 mi
9:51 AM82 °FPassing clouds.12 mph79%30.04 "Hg6 mi
8:50 AM79 °FPassing clouds.8 mph94%30.04 "Hg6 mi
7:51 AM75 °FFog.5 mph100%30.04 "Hg4 mi
6:52 AM73 °FFog.5 mph100%30.04 "Hg4 mi
Weather by CustomWeather, © 2016

See weather overviewHow to use our weather pages